Weather History for KBOS - October, 2011

Change the Weather History Date:

Thursday, October 6, 2011

  Actual Average Record
Temperature  
Mean Temperature 57 °F 57 °F  
Max Temperature 66 °F 65 °F 86 °F (1946)
Min Temperature 48 °F 50 °F 31 °F (1883)
Degree Days  
Heating Degree Days 8 8  
Month to date heating degree days 23 45  
Since 1 July heating degree days 67 142  
Cooling Degree Days 0 1  
Month to date cooling degree days 0 6  
Year to date cooling degree days 982 746  
Growing Degree Days 6 (Base 50)    
Moisture  
Dew Point 27 °F    
Average Humidity 38    
Maximum Humidity 56    
Minimum Humidity 19    
Precipitation  
Precipitation 0.00 in 0.14 in 3.00 in (1962)
Month to date precipitation 1.53 0.77  
Year to date precipitation 38.98 32.83  
Snow  
Snow 0.00 in 0.00 in 0.00 in (2013)
Month to date snowfall 0.0 0.0  
Since 1 July snowfall 0.0 0.0  
Since 1 September snowfall 0.0 0.0  
Snow Depth 0.00 in    
Sea Level Pressure  
Sea Level Pressure 30.26 in    
Wind  
Wind Speed 13 mph (NW)    
Max Wind Speed 22 mph    
Max Gust Speed 28 mph    
Visibility 10 miles    
Events      
T = Trace of Precipitation, MM = Missing Value Source: NWS Daily Summary

Daily Weather History Graph

Daily Weather History Graph

Search for Another Location

Airport or City:

Trip Planner

Search our weather history database for the weather conditions in past years. The results will help you decide how hot, cold, wet, or windy it might be!

Date:

Astronomy

Oct. 06, 2011 Rise Set
Actual Time 6:46 AM EDT 6:17 PM EDT
Civil Twilight 6:18 AM EDT 6:45 PM EDT
Nautical Twilight 5:45 AM EDT 7:17 PM EDT
Astronomical Twilight 5:12 AM EDT 7:50 PM EDT
Moon 3:34 PM EDT (10/6) 1:25 AM EDT (10/6)
Length of Visible Light 12h 27m
Length of Day
11h 31m
Waxing Gibbous, 75% of the Moon is Illuminated
Oct 6
Waxing Gibbous
Oct 11
Full
Oct 19
Last Quarter
Oct 26
New
Nov 2
First Quarter

Hourly Weather History & Observations

Time (EDT) Temp. Dew Point Humidity Pressure Visibility Wind Dir Wind Speed Gust Speed Precip Events Conditions
12:54 AM 51.1 °F 32.0 °F 48% 30.22 in 10.0 mi WNW 9.2 mph - N/A   Clear
1:54 AM 51.1 °F 32.0 °F 48% 30.23 in 10.0 mi WNW 10.4 mph - N/A   Clear
2:54 AM 50.0 °F 32.0 °F 50% 30.22 in 10.0 mi WNW 10.4 mph - N/A   Clear
3:54 AM 48.9 °F 33.1 °F 54% 30.22 in 10.0 mi WNW 11.5 mph - N/A   Clear
4:54 AM 48.9 °F 32.0 °F 52% 30.23 in 10.0 mi WNW 12.7 mph - N/A   Clear
5:54 AM 48.9 °F 30.9 °F 50% 30.24 in 10.0 mi WNW 13.8 mph 20.7 mph N/A   Clear
6:54 AM 48.0 °F 30.9 °F 52% 30.24 in 10.0 mi West 13.8 mph 23.0 mph N/A   Clear
7:54 AM 48.9 °F 30.0 °F 48% 30.27 in 10.0 mi WNW 13.8 mph - N/A   Clear
8:54 AM 52.0 °F 27.0 °F 38% 30.28 in 10.0 mi NNW 16.1 mph 26.5 mph N/A   Clear
9:54 AM 54.0 °F 27.0 °F 35% 30.28 in 10.0 mi NNW 12.7 mph 21.9 mph N/A   Mostly Cloudy
10:54 AM 55.9 °F 26.1 °F 32% 30.27 in 10.0 mi NW 18.4 mph 26.5 mph N/A   Scattered Clouds
11:54 AM 57.9 °F 26.1 °F 30% 30.26 in 10.0 mi NW 16.1 mph 24.2 mph N/A   Clear
12:54 PM 62.1 °F 24.1 °F 23% 30.24 in 10.0 mi WNW 18.4 mph 24.2 mph N/A   Scattered Clouds
1:54 PM 63.0 °F 21.9 °F 21% 30.22 in 10.0 mi NW 18.4 mph - N/A   Clear
2:54 PM 64.0 °F 21.9 °F 20% 30.21 in 10.0 mi NNW 19.6 mph 27.6 mph N/A   Partly Cloudy
3:54 PM 64.9 °F 21.9 °F 19% 30.21 in 10.0 mi WNW 15.0 mph 23.0 mph N/A   Partly Cloudy
4:54 PM 64.0 °F 21.9 °F 20% 30.21 in 10.0 mi NW 13.8 mph - N/A   Clear
5:54 PM 62.1 °F 24.1 °F 23% 30.23 in 10.0 mi North 10.4 mph - N/A   Clear
6:54 PM 59.0 °F 26.1 °F 28% 30.26 in 10.0 mi NNE 6.9 mph - N/A   Clear
7:54 PM 59.0 °F 23.0 °F 25% 30.27 in 10.0 mi NNW 9.2 mph 16.1 mph N/A   Clear
8:54 PM 57.0 °F 23.0 °F 27% 30.30 in 10.0 mi NNW 12.7 mph - N/A   Clear
9:54 PM 55.0 °F 25.0 °F 31% 30.33 in 10.0 mi NNW 12.7 mph 18.4 mph N/A   Partly Cloudy
10:54 PM 52.0 °F 28.0 °F 40% 30.35 in 10.0 mi NNW 9.2 mph - N/A   Partly Cloudy
11:54 PM 50.0 °F 28.0 °F 43% 30.35 in 10.0 mi North 10.4 mph - N/A   Clear